Warrior Lake Weather Center

Moon Phase Calendar



Warrior Lake Water Level
Online Cameras

 


      

Current Conditions in Eutaw
6/20/2024 5:25:28 AM

68°F
Feels Like 68
Clouds
Humidity
77%
Pressure
30.18"
Wind
5.4 mph (ENE)
Dew Point
61°F
UV Index
0/10 (Low)
Visibility
6 mi

Hourly Forecast

Date & Time Thu, Jun 20
5:00 AM
Thu, Jun 20
6:00 AM
Thu, Jun 20
7:00 AM
Thu, Jun 20
8:00 AM
Thu, Jun 20
9:00 AM
Thu, Jun 20
10:00 AM
Thu, Jun 20
11:00 AM
Thu, Jun 20
12:00 PM
Thu, Jun 20
1:00 PM
Thu, Jun 20
2:00 PM
Thu, Jun 20
3:00 PM
Thu, Jun 20
4:00 PM
Thu, Jun 20
5:00 PM
Thu, Jun 20
6:00 PM
Thu, Jun 20
7:00 PM
Thu, Jun 20
8:00 PM
Thu, Jun 20
9:00 PM
Thu, Jun 20
10:00 PM
Thu, Jun 20
11:00 PM
Fri, Jun 21
12:00 AM
Fri, Jun 21
1:00 AM
Fri, Jun 21
2:00 AM
Fri, Jun 21
3:00 AM
Fri, Jun 21
4:00 AM
Fri, Jun 21
5:00 AM
Fri, Jun 21
6:00 AM
Fri, Jun 21
7:00 AM
Fri, Jun 21
8:00 AM
Fri, Jun 21
9:00 AM
Fri, Jun 21
10:00 AM
Fri, Jun 21
11:00 AM
Fri, Jun 21
12:00 PM
Fri, Jun 21
1:00 PM
Fri, Jun 21
2:00 PM
Fri, Jun 21
3:00 PM
Fri, Jun 21
4:00 PM
Fri, Jun 21
5:00 PM
Fri, Jun 21
6:00 PM
Fri, Jun 21
7:00 PM
Fri, Jun 21
8:00 PM
Fri, Jun 21
9:00 PM
Fri, Jun 21
10:00 PM
Fri, Jun 21
11:00 PM
Sat, Jun 22
12:00 AM
Sat, Jun 22
1:00 AM
Sat, Jun 22
2:00 AM
Sat, Jun 22
3:00 AM
Sat, Jun 22
4:00 AM
Condition
Clouds

Clouds

Clouds

Clouds

Clouds

Clear

Clear

Clear

Clear

Clear

Clear

Clear

Clear

Clear

Clear

Clear

Clear

Clear

Clouds

Clouds

Clouds

Clouds

Clouds

Clouds

Clouds

Clouds

Clouds

Clouds

Clear

Clear

Clear

Clear

Clouds

Clouds

Clouds

Clouds

Clouds

Clouds

Clouds

Clouds

Clouds

Clouds

Clouds

Clouds

Clouds

Clouds

Clouds

Clouds
Temperature 68°F68°F69°F72°F77°F83°F86°F89°F91°F92°F93°F92°F92°F90°F84°F79°F77°F75°F73°F72°F72°F72°F71°F70°F70°F69°F72°F77°F82°F86°F89°F92°F93°F94°F95°F96°F95°F93°F87°F82°F80°F77°F76°F75°F74°F73°F72°F71°F
Feels Like 68°F68°F70°F73°F78°F85°F87°F88°F90°F92°F94°F94°F93°F93°F89°F79°F78°F76°F74°F73°F73°F72°F72°F71°F70°F70°F73°F78°F84°F87°F90°F92°F93°F94°F95°F95°F95°F97°F90°F83°F80°F78°F76°F76°F75°F73°F72°F71°F
Cloudiness 76%77%72%33%19%4%6%4%4%2%2%2%2%3%4%7%4%1%11%24%23%99%100%100%100%94%94%18%10%8%6%8%23%100%99%100%100%100%100%100%92%68%59%70%76%86%55%39%
Visibility 6 mi6 mi6 mi6 mi6 mi6 mi6 mi6 mi6 mi6 mi6 mi6 mi6 mi6 mi6 mi6 mi6 mi6 mi6 mi6 mi6 mi6 mi6 mi6 mi6 mi6 mi6 mi6 mi6 mi6 mi6 mi6 mi6 mi6 mi6 mi6 mi6 mi6 mi6 mi6 mi6 mi6 mi6 mi6 mi6 mi6 mi6 mi6 mi
Precipitation 0%0%0%0%0%0%0%0%0%0%0%0%0%0%0%0%0%0%0%0%0%0%0%0%0%0%0%0%0%0%0%0%0%0%0%0%0%0%0%0%0%0%0%0%0%0%0%0%
Humidity 77%78%79%74%65%56%43%36%35%36%35%38%40%48%64%69%71%77%82%83%85%83%82%81%79%79%78%67%57%48%42%37%34%32%30%29%31%42%53%54%56%60%63%65%65%67%68%68%
Dew Point 61°F61°F63°F64°F65°F66°F62°F59°F59°F61°F62°F63°F64°F67°F70°F68°F67°F67°F67°F67°F67°F66°F65°F64°F63°F62°F65°F65°F65°F64°F63°F62°F61°F60°F59°F59°F59°F67°F68°F63°F62°F62°F63°F62°F62°F61°F60°F59°F
Pressure 30.18"30.18"30.18"30.21"30.24"30.24"30.24"30.21"30.18"30.18"30.15"30.12"30.12"30.12"30.12"30.12"30.12"30.15"30.15"30.15"30.15"30.15"30.15"30.15"30.15"30.18"30.18"30.21"30.18"30.18"30.15"30.15"30.12"30.09"30.06"30.06"30.03"30.03"30.03"30.03"30.03"30.06"30.06"30.06"30.06"30.06"30.06"30.06"
Wind Speed 5.4 mph5.3 mph6.1 mph8.1 mph8.9 mph9.1 mph9.5 mph9 mph8.4 mph7.1 mph8 mph8.9 mph8.2 mph5.8 mph4.1 mph2.9 mph2.4 mph2.3 mph1.3 mph3.1 mph3.4 mph2.5 mph2.5 mph1.8 mph2.2 mph2.3 mph1.8 mph2.9 mph4.1 mph4.6 mph4.6 mph4.7 mph5.1 mph5 mph5.2 mph5.8 mph6 mph3.3 mph1.3 mph2.4 mph3.8 mph3.3 mph2.7 mph3.9 mph3.2 mph4.6 mph3.7 mph4.2 mph
Wind
Direction
75°
ENE
68°
ENE
72°
ENE
87°
E
99°
E
94°
E
95°
E
103°
ESE
111°
ESE
114°
ESE
128°
SE
139°
SE
140°
SE
145°
SE
155°
SSE
158°
SSE
201°
SSW
239°
WSW
350°
N
347°
NNW
343°
NNW
53°
NE

N
22°
NNE
15°
NNE
68°
ENE
96°
E
121°
ESE
119°
ESE
117°
ESE
112°
ESE
92°
E
89°
E
86°
E
82°
E
86°
E
90°
E
96°
E
83°
E
63°
ENE
70°
ENE
55°
NE
64°
ENE
86°
E
105°
ESE
101°
E
118°
ESE
140°
SE

Daily Forecast

Date High Low Precip. Humidity
Today
Jun 20

Clear
93 °F
68 °F
0%
36%
Friday
Jun 21

Clear
96 °F
69 °F
0%
37%
Saturday
Jun 22

Clouds
99 °F
69 °F
0%
38%
Sunday
Jun 23

Clouds
96 °F
77 °F
0%
38%
Monday
Jun 24

Rain
101 °F
74 °F
26%
37%
Tuesday
Jun 25

Rain
100 °F
73 °F
100%
39%
Wednesday
Jun 26

Rain
96 °F
72 °F
100%
44%
Thursday
Jun 27

Rain
93 °F
71 °F
100%
46%
Friday
Jun 28

Clear
97 °F
70 °F
0%
37%
Saturday
Jun 29

Rain
91 °F
74 °F
20%
48%
Sunday
Jun 30

Clouds
95 °F
73 °F
0%
33%
Monday
Jul 1

Clouds
98 °F
72 °F
0%
30%
Tuesday
Jul 2

Clear
100 °F
72 °F
0%
29%
Wednesday
Jul 3

Clouds
97 °F
74 °F
0%
37%
Thursday
Jul 4

Rain
99 °F
78 °F
58%
39%
Friday
Jul 5

Rain
99 °F
77 °F
30%
39%

Temperature 8-14 Day Outlook



Precipitation 8-14 Day Outlook






About Us
Contact Us
Site Map
Search Site
Advertise With Us
   
Warrior.USLakes.info
THE WARRIOR LAKE WEBSITE

Copyright 2024, Lakes Online
Privacy    |    Legal